Regional Weather Roundup
Issued by NWS

Home | Current Version | Previous Version | Graphics & Text | Print | Product List | Glossary On
Versions: 1 2 3 4 5 6 7 8 9 10 11 12 13 14 15 16 17 18 19 20 21 22 23 24 25 26 27 28 29 30 31 32 33 34 35 36 37 38 39 40 41 42 43 44 45 46 47 48 49 50
000
ASUS43 KDTX 010010
RWRMI
MICHIGAN HOURLY REGIONAL WEATHER ROUNDUP
NATIONAL WEATHER SERVICE DETROIT/PONTIAC MI
800 PM EDT THU JUL 31 2014

NOTE: "FAIR" INDICATES FEW OR NO CLOUDS BELOW 12,000 FEET WITH NO
SIGNIFICANT WEATHER AND/OR OBSTRUCTION TO VISIBILITY.

MIZ047>049-052>055-059>063-066>070-074>076-081>083-010100-
SOUTHEAST LOWER MICHIGAN

CITY           SKY/WX    TMP DP  RH WIND       PRES   REMARKS
ADRIAN         PTCLDY    77  59  53 W3        30.04R
ALMA           CLEAR     72  62  71 SW3       30.01R
6HR MIN TEMP:  66; 6HR MAX TEMP:  77;

ANN ARBOR      CLEAR     76  58  53 W5        30.02S
BAD AXE        PTCLDY    73  57  59 CALM      30.00S
6HR MIN TEMP:  72; 6HR MAX TEMP:  76;

DETROIT CITY   CLEAR     80  57  45 W9        30.01R
6HR MIN TEMP:  75; 6HR MAX TEMP:  82; 6HR PCP:  0.01;

DETROIT        MOCLDY    77  59  53 SW8       30.02R
6HR MIN TEMP:  76; 6HR MAX TEMP:  81;

FLINT          PTCLDY    73  59  61 CALM      30.01R
6HR MIN TEMP:  69; 6HR MAX TEMP:  80; 6HR PCP:  0.07;

GROSSE ILE     CLEAR     79  57  47 W7        30.01R
HILLSDALE      CLEAR     75  58  56 W5        30.05S
6HR MIN TEMP:  75; 6HR MAX TEMP:  79;

HOWELL         CLEAR     74  57  56 W7        30.02R
6HR MIN TEMP:  74; 6HR MAX TEMP:  78;


CITY           SKY/WX    TMP DP  RH WIND       PRES   REMARKS
JACKSON        CLEAR     74  59  59 W6        30.03S
6HR MIN TEMP:  74; 6HR MAX TEMP:  79;

LAMBERTVILLE   MOCLDY    70  64  83 CALM      30.04S
LANSING        CLEAR     75  58  55 W8        30.02S
6HR MIN TEMP:  75; 6HR MAX TEMP:  79;

LAPEER         NOT AVBL
MASON          CLEAR     74  58  57 W6        30.03R
6HR MIN TEMP:  74; 6HR MAX TEMP:  79;

MONROE         CLEAR     77  59  53 W6        30.01R
MT. CLEMENS    PTCLDY    71  61  71 E7        30.00R
6HR MIN TEMP:  71; 6HR MAX TEMP:  80;

PONTIAC        PTCLDY    75  59  57 W6        30.01R
6HR MIN TEMP:  74; 6HR MAX TEMP:  77;

PORT HOPE        N/A     70  59  68 SE5       29.98R
6HR MIN TEMP:  70; 6HR MAX TEMP:  77;

PORT HURON     CLOUDY    68  59  73 W6        30.04R
TRI CITIES     PTCLDY    75  61  61 SW5       29.99S
6HR MIN TEMP:  74; 6HR MAX TEMP:  79; 6HR PCP: TRACE;

YPSILANTI      CLEAR     80  59  48 W8        30.02R
6HR MIN TEMP:  77; 6HR MAX TEMP:  85; 6HR PCP:  0.04;

$$
MIZ043>046-050>051-056>058-064>065-071>073-077>080-010100-
SOUTHWEST LOWER MICHIGAN

CITY           SKY/WX    TMP DP  RH WIND       PRES   REMARKS
BATTLE CREEK   CLEAR     75  59  57 W5        30.05R
6HR MIN TEMP:  75; 6HR MAX TEMP:  80;

BENTON HARBOR  MOSUNNY   76  56  49 S5        30.02S
6HR MIN TEMP:  76; 6HR MAX TEMP:  80;

BIG RAPIDS     SUNNY     72  57  60 W7        30.00S
6HR MIN TEMP:  72; 6HR MAX TEMP:  78;

COLDWATER      CLEAR     76  59  56 W3        30.04S
6HR MIN TEMP:  76; 6HR MAX TEMP:  82;

HOLLAND        SUNNY     77  60  55 SW7       30.02S
6HR MIN TEMP:  74; 6HR MAX TEMP:  79;

GRAND RAPIDS   MOSUNNY   76  61  59 SW9       30.02S
6HR MIN TEMP:  74; 6HR MAX TEMP:  81;

KALAMAZOO      CLEAR     77  57  50 W3        30.04R
6HR MIN TEMP:  77; 6HR MAX TEMP:  81;

MARSHALL       CLEAR     73  59  60 W8        30.04R
MUSKEGON       PTSUNNY   71  57  61 S5        30.01S
6HR MIN TEMP:  70; 6HR MAX TEMP:  74;

$$
MIZ016>042-010100-
NORTHERN LOWER MICHIGAN

CITY           SKY/WX    TMP DP  RH WIND       PRES   REMARKS
ALPENA         CLOUDY    72  51  47 N8        29.97R
6HR MIN TEMP:  72; 6HR MAX TEMP:  77;

BEAVER ISLAND  CLOUDY    65  61  86 W7        29.97S
6HR MIN TEMP:  64; 6HR MAX TEMP:  69;

BELLAIRE       MOSUNNY   73  56  54 CALM      29.96S
6HR MIN TEMP:  73; 6HR MAX TEMP:  77;

CADILLAC       SUNNY     71  53  52 W7        30.00R
CHARLEVOIX     MOSUNNY   71  55  57 CALM      29.99S
6HR MIN TEMP:  71; 6HR MAX TEMP:  76;

FRANKFORT      CLEAR     66  58  75 SW5       29.99R
GAYLORD        PTSUNNY   71  48  43 W5        29.99R
6HR MIN TEMP:  70; 6HR MAX TEMP:  75;

GRAYLING       MOSUNNY   74  52  45 CALM      29.99S
6HR MIN TEMP:  74; 6HR MAX TEMP:  77;

HARBOR SPRINGS PTSUNNY   69  56  63 CALM      29.97R
HOUGHTON LAKE  CLEAR     74  51  44 W8        29.99R
6HR MIN TEMP:  73; 6HR MAX TEMP:  77;

MANISTEE       MOSUNNY   72  59  64 SW7       30.00R
OSCODA         MOCLDY    73  53  49 SW3       29.96S
PELLSTON       CLOUDY    68  56  65 W5        29.97R
6HR MIN TEMP:  68; 6HR MAX TEMP:  75;

TRAVERSE CITY  MOSUNNY   76  46  34 W9        29.96R
6HR MIN TEMP:  75; 6HR MAX TEMP:  80;

$$
MIZ007>008-015-010100-
EASTERN UPPER MICHIGAN

CITY           SKY/WX    TMP DP  RH WIND       PRES   REMARKS
KINROSS        SUNNY     64  59  82 N6        29.96R
6HR MIN TEMP:  61; 6HR MAX TEMP:  70;

MACKINAC ISLAN MOSUNNY   65  59  79 W8        29.96S
6HR MIN TEMP:  65; 6HR MAX TEMP:  68;

NEWBERRY       PTSUNNY   68  48  49 NW8       29.95S
S. S. MARIE    SUNNY     64  51  62 W5        29.96R
6HR MIN TEMP:  64; 6HR MAX TEMP:  74;

$$
MIZ004>006-011>014-085-010100-
CENTRAL UPPER MICHIGAN

CITY           SKY/WX    TMP DP  RH WIND       PRES   REMARKS
MANISTIQUE     SUNNY     64  59  83 CALM      29.96R
ESCANABA       MOSUNNY   73  54  49 NE8       29.95R
6HR MIN TEMP:  70; 6HR MAX TEMP:  81;

MENOMINEE      SUNNY     77  55  47 CALM      29.94S
6HR MIN TEMP:  73; 6HR MAX TEMP:  79;

SAWYER-GWINN   SUNNY     68  50  52 E5        29.98R
$$
MIZ001>003-009>011-084-010100-
WESTERN UPPER MICHIGAN

CITY           SKY/WX    TMP DP  RH WIND       PRES   REMARKS
IRON MOUNTAIN  SUNNY     75  48  38 NW6       29.96R
6HR MIN TEMP:  75; 6HR MAX TEMP:  80;

HOUGHTON       SUNNY     70  50  49 W7        29.95S
6HR MIN TEMP:  70; 6HR MAX TEMP:  73;

COPPER HARBOR    N/A     66  56  70 N6        29.93R
6HR MIN TEMP:  66; 6HR MAX TEMP:  73;

$$

ABBREVIATIONS USED IN REMARKS
   TC - TEMPERATURE IN CELSIUS
  WCI - WIND CHILL INDEX
   HX - HEAT INDEX
  VSB - VISIBILITY



USA.gov is the U.S. government's official web portal to all federal, state and local government web resources and services.